Weather History for Djerba Mellita, Tunisia

Change the Weather History Date:

Tuesday, February 12, 2013

  Actual Average Record
Temperature  
Mean Temperature 55 °F -  
Max Temperature 59 °F 65 °F - ()
Min Temperature 51 °F 50 °F - ()
Degree Days  
Heating Degree Days 10    
Growing Degree Days 5 (Base 50)    
Moisture  
Dew Point 36 °F    
Average Humidity 46    
Maximum Humidity 62    
Minimum Humidity 19    
Precipitation  
Precipitation 0.00 in 0.03 in - ()
Sea Level Pressure  
Sea Level Pressure 29.80 in    
Wind  
Wind Speed 16 mph ()    
Max Wind Speed 28 mph    
Max Gust Speed -    
Visibility 5.9 miles    
Events Rain    
T = Trace of Precipitation, MM = Missing Value Source: Averaged Metar Reports

Daily Weather History Graph

Daily Weather History Graph

Search for Another Location

Airport:

Trip Planner

Search our weather history database for the weather conditions in past years. The results will help you decide how hot, cold, wet, or windy it might be!

Date:

Astronomy

Feb. 12, 2013 Rise Set
Actual Time 7:04 AM CET 5:58 PM CET
Civil Twilight 6:38 AM CET 6:23 PM CET
Nautical Twilight 6:09 AM CET 6:53 PM CET
Astronomical Twilight 5:40 AM CET 7:22 PM CET
Moon 8:01 AM CET (2/12) 8:30 PM CET (2/12)
Length of Visible Light 11h 45m
Length of Day
10h 53m
Waxing Crescent, 6% of the Moon is Illuminated
Feb 12
Waxing Crescent
Feb 17
First Quarter
Feb 25
Full
Mar 4
Last Quarter
Mar 11
New

Hourly Weather History & Observations

Time (CET) Temp. Dew Point Humidity Pressure Visibility Wind Dir Wind Speed Gust Speed Precip Events Conditions
12:00 AM 57.2 °F 32.0 °F 38% 29.80 in 6.2 mi SSW 13.8 mph - N/A   Partly Cloudy
1:00 AM 56 °F 26 °F 19% 29.80 in 6 mi SSW 12.7 mph - -   Scattered Clouds
1:00 AM 55.4 °F 26.6 °F 33% 29.80 in 6.2 mi SSW 12.7 mph - N/A   Partly Cloudy
2:00 AM 59.0 °F 28.4 °F 31% 29.77 in 6.2 mi SSW 11.5 mph - N/A   Partly Cloudy
3:00 AM 59.0 °F 30.2 °F 34% 29.77 in 6.2 mi West 24.2 mph - N/A   Partly Cloudy
4:00 AM 56 °F 38 °F 40% 29.77 in 5 mi WSW 16.1 mph - -   Partly Cloudy
4:00 AM 55.4 °F 39.2 °F 54% 29.74 in 5.0 mi WSW 16.1 mph - N/A   Scattered Clouds
5:00 AM 55.4 °F 39.2 °F 54% 29.74 in 5.0 mi WSW 16.1 mph - N/A   Scattered Clouds
6:00 AM 55.4 °F 39.2 °F 54% 29.74 in 5.0 mi West 16.1 mph - N/A   Scattered Clouds
7:00 AM 54 °F 39 °F 46% 29.76 in 5 mi West 18.4 mph - -   Partly Cloudy
7:00 AM 53.6 °F 39.2 °F 58% 29.74 in 5.0 mi West 18.4 mph - N/A   Scattered Clouds
8:00 AM 53.6 °F 39.2 °F 58% 29.74 in 5.0 mi West 26.5 mph - N/A   Scattered Clouds
9:00 AM 51.8 °F 39.2 °F 62% 29.77 in 5.0 mi WSW 24.2 mph - N/A Rain Light Rain
10:00 AM 52 °F 39 °F 51% 29.80 in 5 mi WSW 24.2 mph - -   Mostly Cloudy
10:00 AM 51.8 °F 39.2 °F 62% 29.77 in 5.0 mi WSW 24.2 mph - N/A   Mostly Cloudy
11:00 AM 53.6 °F 39.2 °F 58% 29.77 in 5.0 mi West 24.2 mph - N/A   Scattered Clouds
12:00 PM 55.4 °F 37.4 °F 51% 29.77 in 6.2 mi West 26.5 mph - N/A   Scattered Clouds
12:30 PM 55.4 °F 33.8 °F 44% 29.77 in 6.2 mi West 27.6 mph - N/A   Partly Cloudy
1:00 PM 56 °F 35 °F 32% 29.79 in 6 mi West 26.5 mph - -   Partly Cloudy
1:00 PM 55.4 °F 35.6 °F 47% 29.77 in 6.2 mi West 26.5 mph - N/A   Partly Cloudy
1:30 PM 55.4 °F 35.6 °F 47% 29.77 in 6.2 mi West 21.9 mph - N/A   Partly Cloudy
2:00 PM 57.2 °F 33.8 °F 41% 29.77 in 6.2 mi West 21.9 mph - N/A   Partly Cloudy
2:30 PM 57.2 °F 35.6 °F 44% 29.77 in 6.2 mi West 19.6 mph - N/A   Partly Cloudy
3:00 PM 57.2 °F 35.6 °F 44% 29.77 in 6.2 mi West 19.6 mph - N/A   Partly Cloudy
3:30 PM 59.0 °F 35.6 °F 42% 29.77 in 6.2 mi West 18.4 mph - N/A   Partly Cloudy
4:00 PM 58 °F 36 °F 31% 29.79 in 6 mi West 16.1 mph - -   Mostly Cloudy
4:00 PM 57.2 °F 35.6 °F 44% 29.77 in 6.2 mi West 16.1 mph - N/A   Scattered Clouds
4:30 PM 57.2 °F 33.8 °F 41% 29.77 in 6.2 mi NW 16.1 mph - N/A   Scattered Clouds
5:00 PM 57.2 °F 35.6 °F 44% 29.77 in 6.2 mi NW 16.1 mph - N/A   Partly Cloudy
5:30 PM 57.2 °F 35.6 °F 44% 29.80 in 6.2 mi WNW 16.1 mph - N/A   Partly Cloudy
6:00 PM 57.2 °F 37.4 °F 48% 29.80 in 6.2 mi WNW 11.5 mph - N/A   Partly Cloudy
6:30 PM 55.4 °F 35.6 °F 47% 29.80 in 6.2 mi NW 9.2 mph - N/A   Partly Cloudy
7:00 PM 55 °F 37 °F 39% 29.83 in 6 mi West 6.9 mph - -   Partly Cloudy
7:00 PM 55.4 °F 37.4 °F 51% 29.83 in 6.2 mi West 6.9 mph - N/A   Partly Cloudy
7:30 PM 53.6 °F 35.6 °F 51% 29.83 in 6.2 mi WNW 4.6 mph - N/A   Partly Cloudy
8:00 PM 55.4 °F 37.4 °F 51% 29.83 in 6.2 mi West 13.8 mph - N/A   Partly Cloudy
8:30 PM 55.4 °F 37.4 °F 51% 29.83 in 6.2 mi West 13.8 mph - N/A   Partly Cloudy
9:00 PM 55.4 °F 37.4 °F 51% 29.86 in 6.2 mi West 13.8 mph - N/A   Partly Cloudy
9:30 PM 55.4 °F 35.6 °F 47% 29.86 in 6.2 mi West 16.1 mph - N/A   Partly Cloudy
10:00 PM 54 °F 36 °F 39% 29.88 in 6 mi West 16.1 mph - -   Partly Cloudy
10:00 PM 55.4 °F 35.6 °F 47% 29.86 in 6.2 mi West 16.1 mph - N/A   Partly Cloudy
10:30 PM 53.6 °F 33.8 °F 47% 29.89 in 6.2 mi West 16.1 mph - N/A   Partly Cloudy
11:00 PM 53.6 °F 35.6 °F 51% 29.89 in 6.2 mi West 18.4 mph - N/A   Partly Cloudy
11:30 PM 53.6 °F 35.6 °F 51% 29.89 in 6.2 mi West 18.4 mph - N/A   Partly Cloudy